sat.trackr.live / text

‹ back to catalog

STARLINK-35752

NORAD 66275 · 2025-247L

PAYLOAD ACTIVE UNKNOWN

§ Identity

Operator
Country
US
Launch date
2025-10-31
Launch site
AFWTR
Launch vehicle
Mass (kg)
RCS (m²)

Purposes: comms

External: N2YO · Heavens-Above · Gunter

§ Orbital elements

Epoch: 2026-05-24T15:50:30.079104Z

Period
94.10 min
Inclination
53.1580°
Eccentricity
0.0001106
Mean motion
15.30216498 rev/d
Perigee alt
474.4 km
Apogee alt
475.9 km
Semi-major
6,853.3 km
B*
3.5330e-4
RAAN
198.6696°
Arg perigee
83.7533°
Mean anomaly
276.3594°
Rev number
3,266

§ Raw data

STARLINK-357521 66275U 25247L   26144.66007036  .00010124  00000+0  35330-3 0  99952 66275  53.1580 198.6696 0001106  83.7533 276.3594 15.30216498 32664

JSON: /api/v1/satellites/66275 · /tle

For live sub-satellite position, see the globe view (requires WebGL).

§ Visibility from observer

Set your observer location to see the next 7 days of passes ≥ 10°. The values pass through the URL so the page stays shareable.

No JS? Fill the form by hand. The geolocation button needs JavaScript.